LiveATC.Net - Listen to live air traffic control over the Internet!


ICAO: LSZB  IATA: BRN   Airport: Bern-Belp Airport
City: Bern
Country: Switzerland   Continent: Europe
LSZB METAR Weather: LSZB 181050Z 02005KT 9999 FEW032 BKN041 09/02 Q1018 NOSIG
LSZB Flight Activity (FlightAware)
LSZB Webcam:  (Airport Webcams) 

LSZB Twr/App/Dep
Feed Status: UP   Listeners: 1
Listen in your browser - HTML5 player (in browser, HTML5)
Click here to listen with your own player (launches your MP3 player)
Archive Access: LSZB Twr/App/Dep
FacilityFrequency
LSZB Arrival/Departure127.325
LSZB Tower121.025
Airport Info

NOTICE

Unauthorized use prohibited. See LiveATC.net Terms of Service


Airport/ARTCC Code
Frequency Search
(e.g., 124.400, 128.75)
Site-wide search
 


Browse Feeds
Top 50 Feeds
HF Oceanic Feeds
Coverage Map
Bad Weather Areas

LiveATC FAQ
Offer LiveATC feed
Contact LiveATC.net
Press Inquiries

LiveATC on iPhone
LiveATC on Android

Windows Phone
Windows 8/10

LiveATC Mobile
(Mobile browser)

ATC Audio Archives
Interesting Recordings

LiveATC Forums


Home Page
About LiveATC.net
Make a Donation
Terms of Use
Privacy Policy

Canadian Air Freqs

AIRMETs/SIGMETs

FAA Airport Status
Nat'l Airspace Status
Arrival Demand Charts


Server Software By:
Icecast.org
Liquidsoap